VK1ET-13 Weather Reports


Display with metric or nautical units.
time (UTC)temp
F
wind
direction
speed
MPH
gust
MPH
rain 1hr
in
rain 24hr
in
rain mn
in
humidity
%
barometer
mb
20260831185020 46 168 2.0 3.0 0.00 0.00 0.00 96 1025.2
20260831184034 46 176 2.0 3.0 0.00 0.00 0.00 96 1025.3
20260831183036 47 172 1.0 2.0 0.00 0.00 0.00 96 1025.2
20260831182030 47 113 1.0 2.0 0.00 0.00 0.00 96 1025.3
20260831181039 47 143 1.0 2.0 0.00 0.00 0.00 96 1025.3
20260831180027 47 118 1.0 2.0 0.00 0.00 0.00 95 1025.4
20260831175029 47 37 1.0 3.0 0.00 0.00 0.00 95 1025.7
20260831174024 47 82 1.0 2.0 0.00 0.00 0.00 95 1025.6
20260831173026 47 51 1.0 3.0 0.00 0.00 0.00 95 1025.7
20260831172035 47 93 1.0 3.0 0.00 0.00 0.00 94 1025.6
20260831171024 48 172 1.0 2.0 0.00 0.00 0.00 94 1025.8
20260831170032 47 147 1.0 3.0 0.00 0.00 0.00 94 1025.8
20260831165019 48 174 1.0 3.0 0.00 0.00 0.00 94 1025.9
20260831164028 48 181 1.0 2.0 0.00 0.00 0.00 94 1026.1
20260831163016 48 176 2.0 3.0 0.00 0.00 0.00 93 1026.2
20260831162025 49 180 2.0 3.0 0.00 0.00 0.00 92 1026.3
20260831161032 49 182 1.0 3.0 0.00 0.00 0.00 89 1026.4
20260831160021 50 177 1.0 3.0 0.00 0.00 0.00 89 1026.6
20260831155027 50 180 1.0 2.0 0.00 0.00 0.00 88 1026.7
20260831154035 50 180 2.0 4.0 0.00 0.00 0.00 89 1026.7
20260831153022 51 181 2.0 4.0 0.00 0.00 0.00 91 1027.0
20260831152038 50 178 1.0 3.0 0.00 0.00 0.00 90 1026.9
20260831151018 50 180 2.0 4.0 0.00 0.00 0.00 90 1027.1
20260831150025 51 123 1.0 2.0 0.00 0.00 0.00 89 1027.2
20260831145033 51 178 3.0 4.0 0.00 0.00 0.00 91 1027.2
20260831144020 51 178 3.0 5.0 0.00 0.00 0.00 92 1027.4
20260831143037 50 178 2.0 5.0 0.00 0.00 0.00 90 1027.3
20260831142017 51 156 1.0 4.0 0.00 0.00 0.00 90 1027.4
20260831141022 52 136 1.0 3.0 0.00 0.00 0.00 86 1027.4
20260831140029 53 183 2.0 4.0 0.00 0.00 0.00 86 1027.3
20260831134026 54 175 2.0 4.0 0.00 0.00 0.00 84 1027.4
20260831133032 55 170 2.0 4.0 0.00 0.00 0.00 82 1027.5
20260831132024 55 146 2.0 4.0 0.00 0.00 0.00 81 1027.6
20260831131033 54 117 2.0 6.0 0.00 0.00 0.00 84 1027.8
20260831130030 53 18 0.0 3.0 0.00 0.00 0.00 83 1028.0
20260831125018 56 4 1.0 2.0 0.00 0.00 0.00 77 1028.0
20260831124024 56 0.0 1.0 0.00 0.00 0.00 78 1028.1
20260831123535 57 214 0.0 2.0 0.00 0.00 0.00 77 1028.1
20260831122543 57 0.0 1.0 0.00 0.00 0.00 76 1028.1
20260831121521 57 0.0 0.0 0.00 0.00 0.00 75 1028.2
20260831120529 58 198 0.0 1.0 0.00 0.00 0.00 74 1028.2
20260831115536 59 0.0 0.0 0.00 0.00 0.00 72 1028.3
20260831114529 59 0.0 0.0 0.00 0.00 0.00 71 1028.3
20260831113537 60 225 1.0 3.0 0.00 0.00 0.00 71 1028.4
20260831112518 59 0.0 0.0 0.00 0.00 0.00 71 1028.5
20260831111525 59 0.0 0.0 0.00 0.00 0.00 73 1028.5
20260831110532 59 0.0 0.0 0.00 0.00 0.00 73 1028.3
20260831105518 59 0.0 0.0 0.00 0.00 0.00 74 1028.5
20260831104524 60 0.0 0.0 0.00 0.00 0.00 71 1028.5
20260831103532 60 331 0.0 1.0 0.00 0.00 0.00 71 1028.5
20260831102520 60 0.0 0.0 0.00 0.00 0.00 71 1028.4
20260831101531 61 63 0.0 2.0 0.00 0.00 0.00 68 1028.4
20260831100523 62 0.0 1.0 0.00 0.00 0.00 66 1028.2
20260831095040 63 214 0.0 2.0 0.00 0.00 0.00 65 1028.3
20260831094020 62 229 1.0 3.0 0.00 0.00 0.00 66 1028.2
20260831093026 62 257 1.0 2.0 0.00 0.00 0.00 67 1028.3
20260831091532 62 0.0 1.0 0.00 0.00 0.00 69 1028.3
20260831090519 62 208 0.0 1.0 0.00 0.00 0.00 69 1028.3
20260831085521 62 0.0 2.0 0.00 0.00 0.00 69 1028.2
20260831084527 62 281 0.0 2.0 0.00 0.00 0.00 68 1028.2
20260831083532 63 172 0.0 2.0 0.00 0.00 0.00 67 1028.1
20260831082518 63 155 0.0 2.0 0.00 0.00 0.00 67 1028.2
20260831081524 64 350 1.0 3.0 0.00 0.00 0.00 65 1028.1
20260831080530 65 355 3.0 5.0 0.00 0.00 0.00 64 1028.0
20260831075535 65 352 3.0 6.0 0.00 0.00 0.00 63 1027.8
20260831074518 66 341 4.0 9.0 0.00 0.00 0.00 61 1027.9
20260831073530 67 337 4.0 9.0 0.00 0.00 0.00 59 1027.8
20260831072529 67 340 5.0 8.0 0.00 0.00 0.00 56 1027.8
20260831071533 68 342 5.0 10.0 0.00 0.00 0.00 54 1027.7
20260831070527 68 336 6.0 13.0 0.00 0.00 0.00 53 1027.9
20260831065525 69 325 7.0 11.0 0.00 0.00 0.00 50 1027.9
20260831064531 69 338 5.0 9.0 0.00 0.00 0.00 49 1027.9
20260831063547 69 326 6.0 11.0 0.00 0.00 0.00 49 1028.0
20260831062536 69 324 6.0 9.0 0.00 0.00 0.00 50 1027.8
20260831061522 70 327 6.0 11.0 0.00 0.00 0.00 47 1027.9
20260831060532 69 332 7.0 13.0 0.00 0.00 0.00 43 1027.9
20260831055535 70 334 7.0 13.0 0.00 0.00 0.00 38 1027.9
20260831054534 70 359 5.0 10.0 0.00 0.00 0.00 35 1027.8
20260831053518 70 346 4.0 8.0 0.00 0.00 0.00 40 1027.9
20260831052530 70 348 5.0 11.0 0.00 0.00 0.00 41 1028.1
20260831051529 70 357 5.0 10.0 0.00 0.00 0.00 41 1028.2
20260831050537 70 0 5.0 9.0 0.00 0.00 0.00 38 1028.2
20260831045523 71 342 6.0 11.0 0.00 0.00 0.00 36 1028.2
20260831044537 70 339 4.0 9.0 0.00 0.00 0.00 37 1028.2
20260831043542 71 324 7.0 11.0 0.00 0.00 0.00 39 1028.3
20260831042521 70 345 4.0 8.0 0.00 0.00 0.00 42 1028.4
20260831041523 70 330 7.0 13.0 0.00 0.00 0.00 41 1028.4
20260831040530 70 329 6.0 11.0 0.00 0.00 0.00 40 1028.4
20260831035531 70 341 5.0 9.0 0.00 0.00 0.00 42 1028.5
20260831034535 70 327 6.0 13.0 0.00 0.00 0.00 40 1028.5
20260831033519 70 337 6.0 10.0 0.00 0.00 0.00 41 1028.7
20260831032522 69 334 5.0 10.0 0.00 0.00 0.00 43 1028.7
20260831031534 70 331 7.0 12.0 0.00 0.00 0.00 45 1029.1
20260831030535 69 329 6.0 10.0 0.00 0.00 0.00 45 1029.1
20260831025534 69 343 5.0 8.0 0.00 0.00 0.00 45 1029.1
20260831024525 69 342 4.0 10.0 0.00 0.00 0.00 44 1029.3
20260831023531 69 357 4.0 6.0 0.00 0.00 0.00 42 1029.5
20260831022531 68 347 4.0 7.0 0.00 0.00 0.00 39 1029.6
20260831021536 69 330 5.0 9.0 0.00 0.00 0.00 41 1029.8
20260831020519 68 329 4.0 9.0 0.00 0.00 0.00 43 1029.8
20260831015523 68 318 2.0 5.0 0.00 0.00 0.00 44 1029.9
20260831014529 66 278 1.0 3.0 0.00 0.00 0.00 47 1030.0
20260831013535 66 301 3.0 6.0 0.00 0.00 0.00 46 1030.2
20260831012520 65 301 2.0 5.0 0.00 0.00 0.00 49 1030.4
20260831011525 63 286 1.0 2.0 0.00 0.00 0.00 52 1030.4
20260831010535 62 289 3.0 4.0 0.00 0.00 0.00 57 1030.6
20260831005533 61 268 2.0 5.0 0.00 0.00 0.00 58 1030.7
20260831004517 60 206 2.0 4.0 0.00 0.00 0.00 59 1030.8
20260831003523 59 197 3.0 4.0 0.00 0.00 0.00 62 1030.9
20260831002534 59 191 3.0 6.0 0.00 0.00 0.00 63 1030.9
20260831001540 57 211 2.0 6.0 0.00 0.00 0.00 64 1031.1
20260831000517 56 194 3.0 4.0 0.00 0.00 0.00 65 1031.1
20260830235525 56 184 4.0 6.0 0.00 0.00 0.00 63 1031.1
20260830234528 55 195 3.0 5.0 0.00 0.00 0.00 63 1031.2
20260830233534 54 187 3.0 5.0 0.00 0.00 0.00 65 1031.2
20260830232518 54 174 4.0 7.0 0.00 0.00 0.00 65 1031.3
20260830231524 53 167 4.0 6.0 0.00 0.00 0.00 67 1031.4
20260830230529 53 163 4.0 6.0 0.00 0.00 0.00 68 1031.3
20260830225534 52 169 3.0 6.0 0.00 0.00 0.00 70 1031.3
20260830224519 52 188 2.0 4.0 0.00 0.00 0.00 74 1031.3
20260830223534 50 171 3.0 5.0 0.00 0.00 0.00 79 1031.3
20260830222518 50 190 3.0 4.0 0.00 0.00 0.00 82 1031.3
20260830221522 49 176 2.0 4.0 0.00 0.00 0.00 82 1031.2
20260830220529 48 169 2.0 4.0 0.00 0.00 0.00 85 1031.0
20260830215548 46 172 2.0 4.0 0.00 0.00 0.00 90 1031.1
20260830214520 45 173 3.0 4.0 0.00 0.00 0.00 93 1031.0
20260830213523 44 181 2.0 3.0 0.00 0.00 0.00 93 1031.0
20260830212528 43 172 2.0 4.0 0.00 0.00 0.00 92 1030.8
20260830211533 43 182 1.0 3.0 0.00 0.00 0.00 92 1030.8
20260830210518 43 267 0.0 2.0 0.00 0.00 0.00 93 1030.7
20260830205524 43 209 1.0 2.0 0.00 0.00 0.00 93 1030.7
20260830204528 43 189 0.0 2.0 0.00 0.00 0.00 93 1030.5
20260830203534 43 171 1.0 3.0 0.00 0.00 0.00 93 1030.4
20260830202518 43 115 0.0 2.0 0.00 0.00 0.00 93 1030.3
20260830201530 43 84 0.0 1.0 0.00 0.00 0.00 93 1030.1
20260830200528 42 37 1.0 2.0 0.00 0.00 0.00 93 1030.1
20260830195533 42 94 1.0 3.0 0.00 0.00 0.00 94 1029.9
20260830194518 42 145 2.0 4.0 0.00 0.00 0.00 95 1029.8
20260830193531 43 156 4.0 5.0 0.00 0.00 0.00 96 1029.7
20260830192530 43 172 2.0 3.0 0.00 0.00 0.00 95 1029.6
20260830191536 44 177 2.0 4.0 0.00 0.00 0.00 94 1029.6
20260830190520 45 164 2.0 4.0 0.00 0.00 0.00 93 1029.5